User: anonymous   Login
Location: Arroyo Grande
(40.2671°N, 4.2512°W)
Time: 18:31:42
(UTC+00:00)
Language:

Lacrosse 5 rocket - Orbit

View from above orbital plane
View from above orbital plane
View from above satellite
View from above satellite

Ground track
Ground track

The orbit data is extracted from the following two-line orbital elements,

1 28647U 05016B   24147.32855221  .00008880  00000-0  39241-3 0  9991
2 28647  56.9918 119.3494 0093786 232.1240 127.1294 15.18613061277199
Epoch (UTC): 26 May 2024 07:53:06
Eccentricity: 0.0093786
inclination: 56.9918°
perigee height: 445 km
apogee height: 574 km
right ascension of ascending node: 119.3494°
argument of perigee: 232.1240°
revolutions per day: 15.18613061
mean anomaly at epoch: 127.1294°
orbit number at epoch: 27719

The dashed part of the orbit path shows where the satellite is in the earth's shadow,  

DLR